Date String (YYYY-MM-DD hh:mm:ss) UTC,Instrument flags,absolute air pressure of the measurement (hPa),sample flow rate (lpm),inlet stack bypass flow (lpm),air temperature of the measurement (°C),ambient temperature measured by the external sensor (°C),aerosol sample conditioner tube jacket temperature (°C),OPC LED temperature (°C),internal box temperature (°C),relative humidity of the measurement (%),span deviation,mass concentration of particles derived from Lorenz-Mie calculation of OPC scattering (μg/m³),mass concentration of particles derived from Lorenz-Mie calculation of OPC scattering (μg/m³),mass concentration of particles derived from Lorenz-Mie calculation of OPC scattering (μg/m³)
DateTimeUTC,F1_M11,P_M11,Q1_M11,Q2_M11,T1_M11,T2_M11,T3_M11,T4_M11,T5_M11,U1_M11,ZSPAN_M11,X2_M11,X0_M11,X1_M11
2024-01-13 00:00:00,SystemResetWarning,0813.4,4.99,000.00,018.7,016.4,000.0,026.7,020.0,8.6,0000.0,0000.93,0006.81,0000.56
2024-01-13 00:01:00,SystemResetWarning,0813.3,5.00,000.00,018.7,017.5,000.0,027.2,020.0,8.6,0000.0,0000.91,0006.93,0000.55
2024-01-13 00:02:00,SystemResetWarning,0813.3,5.01,000.00,018.7,017.5,000.0,027.2,020.0,8.5,0000.0,0000.92,0006.98,0000.55
2024-01-13 00:03:00,SystemResetWarning,0813.4,5.01,000.00,018.7,017.5,000.0,027.2,020.0,8.5,0000.0,0000.94,0006.54,0000.54
2024-01-13 00:04:00,SystemResetWarning,0813.5,5.01,000.00,018.7,017.5,000.0,027.2,020.0,8.4,0000.0,0000.96,0005.53,0000.54
2024-01-13 00:05:00,SystemResetWarning,0813.5,5.00,000.00,018.7,017.5,000.0,027.2,020.0,8.4,0000.0,0000.96,0005.55,0000.54
2024-01-13 00:06:00,SystemResetWarning,0813.5,4.99,000.00,018.7,017.5,000.0,027.2,020.0,8.3,0000.0,0000.96,0005.59,0000.54
2024-01-13 00:07:00,SystemResetWarning,0813.4,5.00,000.00,018.7,017.5,000.0,027.2,020.0,8.4,0000.0,0000.94,0005.36,0000.53
2024-01-13 00:08:00,SystemResetWarning,0813.4,5.00,000.00,018.7,017.5,000.0,027.2,020.0,8.4,0000.0,0000.88,0005.77,0000.52
2024-01-13 00:09:00,SystemResetWarning,0813.4,5.00,000.00,018.7,017.5,000.0,027.2,020.0,8.4,0000.0,0000.87,0006.43,0000.52
2024-01-13 00:10:00,SystemResetWarning,0813.4,5.00,000.00,018.7,017.5,000.0,027.2,020.0,8.4,0000.0,0000.88,0005.35,0000.51
2024-01-13 00:11:00,SystemResetWarning,0813.5,5.00,000.00,018.7,017.6,000.0,027.2,020.0,8.4,0000.0,0000.91,0004.05,0000.51
2024-01-13 00:12:00,SystemResetWarning,0813.5,5.00,000.00,018.7,017.6,000.0,027.2,020.0,8.5,0000.0,0000.95,0004.15,0000.53
2024-01-13 00:13:00,SystemResetWarning,0813.5,5.00,000.00,018.7,017.6,000.0,027.2,020.0,8.6,0000.0,0000.95,0004.13,0000.54
2024-01-13 00:14:00,SystemResetWarning,0813.5,5.00,000.00,018.7,017.5,000.0,027.2,020.0,8.6,0000.0,0000.99,0004.33,0000.54
2024-01-13 00:15:00,SystemResetWarning,0813.5,5.00,000.00,018.7,017.5,000.0,027.3,020.0,8.7,0000.0,0000.99,0004.22,0000.56
2024-01-13 00:16:00,SystemResetWarning,0813.5,5.00,000.00,018.7,017.5,000.0,027.2,020.1,8.8,0000.0,0000.96,0004.11,0000.57
2024-01-13 00:17:00,SystemResetWarning,0813.5,5.01,000.00,018.8,018.1,000.0,027.2,020.5,8.8,0000.0,0000.92,0003.98,0000.56
2024-01-13 00:18:00,SystemResetWarning,0813.5,5.01,000.00,018.9,018.8,000.0,027.2,020.8,8.7,0000.0,0000.94,0004.06,0000.57
2024-01-13 00:19:00,SystemResetWarning,0813.5,4.99,000.00,019.0,018.8,000.0,027.2,020.4,8.7,0000.0,0000.96,0004.01,0000.58
2024-01-13 00:20:00,SystemResetWarning,0813.6,5.01,000.00,018.9,018.5,000.0,027.2,020.1,8.8,0000.0,0000.99,0003.08,0000.58
2024-01-13 00:21:00,SystemResetWarning,0813.6,4.99,000.00,018.9,018.3,000.0,027.2,020.0,8.7,0000.0,0001.01,0003.88,0000.59
2024-01-13 00:22:00,SystemResetWarning,0813.6,5.00,000.00,018.8,018.1,000.0,027.2,020.0,8.7,0000.0,0001.00,0003.78,0000.60
2024-01-13 00:23:00,SystemResetWarning,0813.6,5.00,000.00,018.8,017.9,000.0,027.3,020.0,8.7,0000.0,0001.02,0003.34,0000.61
2024-01-13 00:24:00,SystemResetWarning,0813.6,5.00,000.00,018.8,017.8,000.0,027.3,020.0,8.7,0000.0,0001.02,0003.91,0000.61
2024-01-13 00:25:00,SystemResetWarning,0813.8,5.00,000.00,018.8,017.7,000.0,027.3,020.0,8.8,0000.0,0000.98,0003.79,0000.62
2024-01-13 00:26:00,SystemResetWarning,0813.8,5.00,000.00,018.8,017.6,000.0,027.3,020.0,8.8,0000.0,0000.99,0003.81,0000.64
2024-01-13 00:27:00,SystemResetWarning,0813.6,5.01,000.00,018.7,017.6,000.0,027.3,020.0,8.8,0000.0,0001.01,0003.96,0000.65
2024-01-13 00:28:00,SystemResetWarning,0813.6,5.00,000.00,018.7,017.7,000.0,027.3,020.0,8.9,0000.0,0001.06,0004.10,0000.67
2024-01-13 00:29:00,SystemResetWarning,0813.5,5.00,000.00,018.7,017.7,000.0,027.2,020.0,8.9,0000.0,0001.09,0004.14,0000.69
2024-01-13 00:30:00,SystemResetWarning,0813.5,5.01,000.00,018.7,017.7,000.0,027.2,020.0,8.9,0000.0,0001.09,0004.08,0000.69
2024-01-13 00:31:00,SystemResetWarning,0813.5,5.00,000.00,018.7,017.7,000.0,027.2,020.0,9.0,0000.0,0001.10,0004.04,0000.71
2024-01-13 00:32:00,SystemResetWarning,0813.6,4.99,000.00,018.7,017.7,000.0,027.2,020.0,9.0,0000.0,0001.13,0003.55,0000.72
2024-01-13 00:33:00,SystemResetWarning,0813.4,4.99,000.00,018.7,017.7,000.0,027.2,020.0,9.0,0000.0,0001.16,0003.10,0000.73
2024-01-13 00:34:00,SystemResetWarning,0813.4,5.00,000.00,018.7,017.7,000.0,027.2,020.0,9.0,0000.0,0001.12,0003.00,0000.73
2024-01-13 00:35:00,SystemResetWarning,0813.4,5.00,000.00,018.7,017.7,000.0,027.2,020.0,9.0,0000.0,0001.16,0002.56,0000.75
2024-01-13 00:36:00,SystemResetWarning,0813.5,5.00,000.00,018.7,017.7,000.0,027.2,020.0,9.0,0000.0,0001.17,0002.43,0000.76
2024-01-13 00:37:00,SystemResetWarning,0813.5,5.00,000.00,018.7,017.7,000.0,027.2,020.0,9.0,0000.0,0001.20,0002.63,0000.76
2024-01-13 00:38:00,SystemResetWarning,0813.5,5.00,000.00,018.7,017.7,000.0,027.2,020.0,9.0,0000.0,0001.25,0002.73,0000.78
2024-01-13 00:39:00,SystemResetWarning,0813.4,5.00,000.00,018.7,017.7,000.0,027.2,020.0,9.0,0000.0,0001.30,0002.84,0000.79
2024-01-13 00:40:00,SystemResetWarning,0813.3,5.01,000.00,018.7,017.7,000.0,027.2,020.0,9.0,0000.0,0001.27,0002.80,0000.79
2024-01-13 00:41:00,SystemResetWarning,0813.2,5.00,000.00,018.7,017.7,000.0,027.2,020.0,9.0,0000.0,0001.27,0002.75,0000.80
2024-01-13 00:42:00,SystemResetWarning,0813.0,5.00,000.00,018.7,017.7,000.0,027.2,020.0,9.0,0000.0,0001.25,0003.31,0000.81
2024-01-13 00:43:00,SystemResetWarning,0813.1,4.99,000.00,018.7,017.7,000.0,027.2,020.0,9.0,0000.0,0001.25,0003.85,0000.82
2024-01-13 00:44:00,SystemResetWarning,0813.3,4.99,000.00,018.7,017.7,000.0,027.2,020.0,8.9,0000.0,0001.27,0003.87,0000.82
2024-01-13 00:45:00,SystemResetWarning,0813.4,4.99,000.00,018.7,017.7,000.0,027.2,020.0,8.9,0000.0,0001.29,0004.94,0000.83
2024-01-13 00:46:00,SystemResetWarning,0813.4,5.00,000.00,018.7,017.7,000.0,027.2,020.0,8.9,0000.0,0001.33,0006.11,0000.84
2024-01-13 00:47:00,SystemResetWarning,0813.5,5.00,000.00,018.7,017.6,000.0,027.2,020.0,8.9,0000.0,0001.38,0006.22,0000.85
2024-01-13 00:48:00,SystemResetWarning,0813.5,5.00,000.00,018.7,017.6,000.0,027.2,020.0,8.9,0000.0,0001.38,0006.66,0000.86
2024-01-13 00:49:00,SystemResetWarning,0813.5,5.00,000.00,018.7,017.6,000.0,027.2,020.0,8.9,0000.0,0001.36,0006.48,0000.86
2024-01-13 00:50:00,SystemResetWarning,0813.5,5.00,000.00,018.7,017.6,000.0,027.2,020.0,8.9,0000.0,0001.35,0007.14,0000.87
2024-01-13 00:51:00,SystemResetWarning,0813.4,5.01,000.00,018.7,017.6,000.0,027.2,020.0,8.9,0000.0,0001.40,0007.77,0000.88
2024-01-13 00:52:00,SystemResetWarning,0813.3,5.00,000.00,018.7,017.6,000.0,027.2,020.0,8.9,0000.0,0001.45,0008.03,0000.89
2024-01-13 00:53:00,SystemResetWarning,0813.3,5.00,000.00,018.7,017.6,000.0,027.2,020.0,8.9,0000.0,0001.50,0008.00,0000.89
2024-01-13 00:54:00,SystemResetWarning,0813.3,5.00,000.00,018.7,017.6,000.0,027.2,020.0,8.9,0000.0,0001.51,0007.71,0000.89
2024-01-13 00:55:00,SystemResetWarning,0813.2,5.00,000.00,018.7,017.6,000.0,027.2,020.1,9.0,0000.0,0001.49,0007.69,0000.89
2024-01-13 00:56:00,SystemResetWarning,0813.2,5.01,000.00,018.8,018.2,000.0,027.2,020.5,9.0,0000.0,0001.52,0007.46,0000.89
2024-01-13 00:57:00,SystemResetWarning,0813.3,4.99,000.00,018.9,018.9,000.0,027.2,020.8,8.9,0000.0,0001.49,0005.92,0000.88
2024-01-13 00:58:00,SystemResetWarning,0813.2,4.99,000.00,019.0,018.9,000.0,027.2,020.4,8.9,0000.0,0001.45,0005.77,0000.87
2024-01-13 00:59:00,SystemResetWarning,0813.1,5.00,000.00,019.0,018.7,000.0,027.2,020.2,8.9,0000.0,0001.43,0005.31,0000.86
